Wheeler Sack Army Air Field Fort Drum US
ICAO: KGTB
IATA: GTB
Category: Medium
Scheduled Services: No

Elevation: 688 ft
TransAlt. 18000 ft.

Airport Communications:
APP/DEP:128.25
ATIS:126.55
GND:121.9
FORT DRUM FLT FLW:141.025
BASE OPS:120.8
PMSV SACK METRO:63.3
TWR:118.75

KGTB Zoom In..

If you have problems with the map follow the link
https://www.worldairports.se/pages/airport.php?
ICAO=KGTB

Runways:

(A) RW 03 length 10000 ft width 150 ft
ILS 108.50 / hdg 29

(B) RW 08 length 4501 ft width 150 ft
---- / hdg 84

(C) RW 15 length 4998 ft width 150 ft
---- / hdg 147

(D) RW 21 length 10000 ft width 150 ft
ILS 108.50 / hdg 209

(E) RW 26 length 4501 ft width 150 ft
---- / hdg 264

(F) RW 33 length 4998 ft width 150 ft
---- / hdg 327

Location; KGTB
Day. 29 / Time. 16.56 Zulu
* Altimeter: 30.19
* Temperature: -08° c. -17.6°f.
* Wind from: 320° Speed 04 kn.
Dewpoint: -12° c.
Visibility: 10 Statute Miles.
Clouds: Overcast 1300 ft.

KGTB 291656Z AUTO 32004KT 10SM OVC013 M08/M12 A3019 RMK AO2 SLP236 T10811119


Wind From 320°
Speed 04 kn.

 
 
jpsmedia worldairports.se 2020   terms of use